Location: Alexandria
(38.8050°N, 77.0470°W)
Time: 14:53:37
(UTC-05:00)

OTV 5 (USA 277) - Visible Passes

Search period start: 25 February 2018 00:00
Search period end: 07 March 2018 00:00
Orbit: 404 x 417 km, 43.0° (Epoch: 07 September)

Date Brightness Start Highest point End Pass type
(mag) Time Alt. Az. Time Alt. Az. Time Alt. Az.
25 Feb ? 04:26:04 19° ENE 04:26:04 19° ENE 04:27:06 10° ENE visible
25 Feb ? 05:58:49 14° WNW 06:01:19 39° N 06:04:27 10° ENE visible
26 Feb ? 05:10:07 43° NNW 05:10:10 43° N 05:13:21 10° ENE visible
27 Feb ? 04:21:23 17° ENE 04:21:23 17° ENE 04:22:16 10° ENE visible
27 Feb ? 05:54:08 14° WNW 05:56:42 38° N 05:59:48 10° ENE visible
28 Feb ? 05:05:23 37° N 05:05:32 37° N 05:08:38 10° ENE visible
01 Mar ? 04:16:38 16° ENE 04:16:38 16° ENE 04:17:29 10° ENE visible
01 Mar ? 05:49:24 14° WNW 05:52:02 50° NNE 05:55:15 10° E visible
02 Mar ? 05:00:41 41° N 05:00:53 42° N 05:04:03 10° E visible
03 Mar ? 04:12:00 16° ENE 04:12:00 16° ENE 04:12:51 10° ENE visible
03 Mar ? 05:44:46 16° WNW 05:47:16 89° NNE 05:50:34 10° ESE visible
04 Mar ? 04:56:09 65° NNE 04:56:11 65° NNE 04:59:27 10° E visible
05 Mar ? 04:07:37 15° E 04:07:37 15° E 04:08:18 10° E visible
05 Mar ? 05:40:23 19° W 05:42:22 40° SSW 05:45:28 10° SE visible
06 Mar ? 04:51:57 50° SSE 04:51:57 50° SSE 04:54:36 10° SE visible
